TimeEST,TemperatureF,Dew PointF,Humidity,Sea Level PressureIn,VisibilityMPH,Wind Direction,Wind SpeedMPH,Gust SpeedMPH,PrecipitationIn,Events,Conditions,WindDirDegrees,DateUTC
12:53 AM,36.0,30.0,79,29.46,10.0,WNW,5.8,-,N/A,,Overcast,290,2013-03-04 05:53:00
1:11 AM,35.6,30.2,81,29.43,10.0,WNW,8.1,-,0.00,Snow,Light Snow,300,2013-03-04 06:11:00
1:53 AM,35.1,30.0,82,29.47,10.0,WNW,8.1,-,0.00,,Overcast,300,2013-03-04 06:53:00
2:48 AM,33.8,30.2,87,29.43,3.0,WNW,9.2,-,0.00,Snow,Light Snow,290,2013-03-04 07:48:00
2:53 AM,34.0,30.0,85,29.46,2.5,WNW,9.2,-,0.00,Snow,Light Snow,300,2013-03-04 07:53:00
3:12 AM,33.8,30.2,87,29.43,1.8,WNW,10.4,-,0.01,Snow,Light Snow,290,2013-03-04 08:12:00
3:24 AM,33.8,30.2,87,29.43,1.2,WNW,8.1,-,0.01,Snow,Light Snow,290,2013-03-04 08:24:00
3:53 AM,32.0,30.0,92,29.45,1.5,WNW,8.1,-,0.02,Snow,Light Snow,290,2013-03-04 08:53:00
4:37 AM,32.0,30.2,93,29.43,2.5,WNW,8.1,-,0.00,Snow,Light Snow,290,2013-03-04 09:37:00
4:53 AM,32.0,30.0,92,29.45,2.5,WNW,8.1,-,0.01,Snow,Light Snow,290,2013-03-04 09:53:00
5:17 AM,32.0,28.4,87,29.42,5.0,WNW,6.9,-,0.00,Snow,Light Snow,290,2013-03-04 10:17:00
5:37 AM,32.0,28.4,87,29.42,2.5,WNW,9.2,17.3,0.00,Snow,Light Snow,290,2013-03-04 10:37:00
5:50 AM,32.0,28.4,87,29.42,4.0,WNW,8.1,-,0.00,Snow,Light Snow,290,2013-03-04 10:50:00
5:53 AM,32.0,28.0,85,29.45,4.0,WNW,8.1,-,0.00,Snow,Light Snow,300,2013-03-04 10:53:00
6:03 AM,32.0,28.4,87,29.43,3.0,WNW,10.4,-,0.00,Snow,Light Snow,300,2013-03-04 11:03:00
6:10 AM,32.0,28.4,87,29.43,4.0,WNW,9.2,18.4,0.00,Snow,Light Snow,300,2013-03-04 11:10:00
6:50 AM,30.2,26.6,86,29.43,1.8,WNW,12.7,21.9,0.00,Snow,Light Snow,300,2013-03-04 11:50:00
6:53 AM,30.9,27.0,85,29.46,1.0,WNW,12.7,21.9,0.00,Snow,Light Snow,300,2013-03-04 11:53:00
7:03 AM,30.2,28.4,93,29.43,0.8,WNW,9.2,19.6,0.00,Snow,Light Snow,300,2013-03-04 12:03:00
7:53 AM,30.9,28.0,89,29.46,0.5,WNW,8.1,16.1,0.02,Fog-Snow,Snow,300,2013-03-04 12:53:00
8:44 AM,32.0,28.4,87,29.43,0.8,NW,6.9,-,0.01,Snow,Light Snow,320,2013-03-04 13:44:00
8:53 AM,32.0,30.0,92,29.45,0.5,NW,4.6,-,0.02,Fog-Snow,Snow,310,2013-03-04 13:53:00
9:15 AM,33.8,30.2,87,29.42,1.0,NW,4.6,-,0.02,Snow,Light Snow,310,2013-03-04 14:15:00
9:53 AM,34.0,32.0,92,29.45,1.2,NW,5.8,-,0.03,Snow,Light Snow,310,2013-03-04 14:53:00
10:20 AM,33.8,32.0,93,29.43,1.8,NW,5.8,-,0.01,Snow,Light Snow,320,2013-03-04 15:20:00
10:28 AM,33.8,32.0,93,29.43,2.0,NNW,5.8,-,0.01,Snow,Light Snow,330,2013-03-04 15:28:00
10:45 AM,35.6,32.0,87,29.43,2.5,NNW,5.8,-,0.02,Snow,Light Snow,330,2013-03-04 15:45:00
10:53 AM,35.1,32.0,89,29.46,2.5,NNW,5.8,-,0.02,Snow,Light Snow,330,2013-03-04 15:53:00
11:01 AM,35.6,32.0,87,29.43,3.0,North,8.1,-,0.00,Snow,Light Snow,350,2013-03-04 16:01:00
11:53 AM,37.0,33.1,86,29.46,10.0,North,11.5,21.9,0.01,Rain,Light Rain,360,2013-03-04 16:53:00
12:53 PM,37.0,33.1,86,29.46,5.0,North,9.2,-,0.02,Rain,Light Rain,10,2013-03-04 17:53:00
1:08 PM,37.4,33.8,87,29.44,2.5,NNE,9.2,-,0.01,Rain,Rain,30,2013-03-04 18:08:00
1:19 PM,35.6,33.8,93,29.44,3.0,NNE,8.1,16.1,0.02,Rain,Light Rain,30,2013-03-04 18:19:00
1:26 PM,37.4,33.8,87,29.44,5.0,NNE,5.8,-,0.02,Rain,Light Rain,30,2013-03-04 18:26:00
1:33 PM,37.4,33.8,87,29.44,10.0,NNE,5.8,-,0.02,,Overcast,30,2013-03-04 18:33:00
1:53 PM,37.0,33.1,86,29.47,8.0,North,6.9,-,0.03,Rain,Light Rain,10,2013-03-04 18:53:00
2:00 PM,37.4,33.8,87,29.45,5.0,NE,6.9,-,0.00,Rain,Light Rain,40,2013-03-04 19:00:00
2:04 PM,35.6,33.8,93,29.45,2.5,NE,10.4,-,0.01,Snow,Light Snow,40,2013-03-04 19:04:00
2:09 PM,35.6,32.0,87,29.45,1.8,NNE,6.9,19.6,0.02,Snow,Light Snow,30,2013-03-04 19:09:00
2:15 PM,35.6,33.8,93,29.45,3.0,NE,8.1,-,0.02,Snow,Light Snow,40,2013-03-04 19:15:00
2:53 PM,36.0,33.1,89,29.49,10.0,NE,10.4,17.3,0.03,Rain,Light Rain,40,2013-03-04 19:53:00
3:15 PM,35.6,33.8,93,29.48,2.5,Variable,6.9,-,0.02,Snow,Light Snow,0,2013-03-04 20:15:00
3:24 PM,35.6,32.0,87,29.49,1.2,NNE,10.4,18.4,0.03,Snow,Light Snow,20,2013-03-04 20:24:00
3:34 PM,35.6,32.0,87,29.49,1.8,NNE,10.4,20.7,0.04,Snow,Light Snow,30,2013-03-04 20:34:00
3:37 PM,35.6,32.0,87,29.49,3.0,NE,11.5,19.6,0.04,Snow,Light Snow,40,2013-03-04 20:37:00
3:53 PM,35.1,32.0,89,29.53,6.0,NNE,9.2,18.4,0.04,Snow,Light Snow,30,2013-03-04 20:53:00
4:00 PM,35.6,32.0,87,29.50,5.0,NNE,6.9,-,0.00,Snow,Light Snow,20,2013-03-04 21:00:00
4:33 PM,35.6,33.8,93,29.52,8.0,NNE,8.1,-,0.01,Snow,Light Snow,20,2013-03-04 21:33:00
4:53 PM,36.0,33.1,89,29.56,5.0,North,6.9,-,0.01,Rain,Light Rain,10,2013-03-04 21:53:00
5:48 PM,35.6,32.0,87,29.56,10.0,North,9.2,-,0.01,,Overcast,10,2013-03-04 22:48:00
5:53 PM,35.1,32.0,89,29.59,10.0,NNE,10.4,-,0.01,,Overcast,20,2013-03-04 22:53:00
6:53 PM,35.1,32.0,89,29.62,10.0,NNE,8.1,-,N/A,,Overcast,20,2013-03-04 23:53:00
7:10 PM,35.6,30.2,81,29.60,10.0,NNE,10.4,-,N/A,,Overcast,20,2013-03-05 00:10:00
7:53 PM,35.1,32.0,89,29.65,7.0,NE,10.4,-,0.00,Snow,Light Snow,40,2013-03-05 00:53:00
8:22 PM,35.6,30.2,81,29.64,9.0,North,6.9,-,0.00,,Overcast,360,2013-03-05 01:22:00
8:53 PM,35.1,32.0,89,29.68,9.0,NNE,9.2,-,0.00,,Overcast,20,2013-03-05 01:53:00
9:42 PM,35.6,30.2,81,29.67,10.0,NNE,8.1,18.4,N/A,,Overcast,30,2013-03-05 02:42:00
9:53 PM,35.1,30.9,85,29.70,10.0,North,6.9,-,N/A,,Overcast,10,2013-03-05 02:53:00
10:30 PM,33.8,30.2,87,29.68,10.0,North,8.1,-,N/A,,Overcast,10,2013-03-05 03:30:00
10:53 PM,34.0,30.9,89,29.72,8.0,NNE,6.9,-,0.00,Snow,Light Snow,30,2013-03-05 03:53:00
11:53 PM,34.0,30.9,89,29.74,4.0,North,8.1,-,0.00,Snow,Light Snow,10,2013-03-05 04:53:00